Theta_e
303 303 305 305 306 306 305 305 304 304 305 304 304 304 304 304 301 303 306 309 312 313 315 315 316 316 316 316 316 314 313 314 313 312 311 309 308 306 305 305 304 303
301 301 301 302 303 302 303 303 304 304 304 303 303 303 300 299 301 302 303 304 306 308 311 312 313 313 314 314 314 313 314 313 312 311 309 308 308 307 306 306 305 304
299 299 300 301 303 302 302 301 301 302 302 302 300 299 301 299 300 299 301 302 303 304 306 308 310 311 311 311 312 311 311 311 311 311 310 310 309 308 308 307 306 305
297 299 300 300 300 301 300 300 300 300 298 299 300 300 299 299 299 299 299 298 300 301 301 304 306 307 308 308 308 308 308 308 309 307 307 306 306 306 306 306 305 305
296 298 298 299 299 298 297 299 300 299 299 300 297 296 297 297 296 296 296 296 297 298 298 299 300 302 303 305 306 306 306 306 307 306 306 306 306 305 305 305 304 304
294 295 296 297 297 297 298 298 299 299 299 297 298 296 297 295 296 296 295 295 295 296 297 297 297 297 298 301 302 304 304 304 304 304 304 304 305 304 305 304 303 302
293 292 293 294 294 294 296 297 298 296 297 297 292 295 293 294 295 296 296 295 295 295 296 297 298 298 299 300 300 301 302 302 303 302 302 303 302 300 299 301 300 300
291 289 291 290 291 292 293 295 295 295 294 290 293 296 292 295 295 295 294 294 295 296 296 297 298 299 299 299 300 300 300 301 301 300 299 299 298 299 298 298 297 297
288 289 289 288 289 291 290 292 292 290 289 292 293 293 290 292 294 293 293 293 293 294 296 296 296 297 298 299 299 300 300 300 300 299 298 297 297 297 297 296 295 295
288 288 287 287 288 290 290 290 291 290 288 289 291 291 291 290 290 292 292 292 292 293 294 295 295 295 295 296 298 298 299 299 298 297 298 297 297 297 297 295 295 294
289 288 287 288 288 288 289 289 289 289 288 289 289 290 290 290 290 289 290 291 293 293 294 294 295 295 295 295 296 297 297 297 297 297 296 296 296 296 295 296 295 295
290 290 290 289 289 289 289 289 289 288 289 288 288 290 290 290 291 290 290 291 291 292 293 294 294 294 294 295 295 295 295 295 296 296 296 296 296 295 295 295 295 295
290 290 291 290 290 289 289 289 289 288 288 289 288 289 289 290 289 290 290 290 291 291 292 292 293 293 293 294 294 295 294 294 294 294 294 294 295 295 294 294 294 294
290 289 290 290 290 289 289 289 289 289 288 288 287 288 289 289 289 290 290 289 290 291 291 291 291 292 293 293 293 293 293 293 293 293 293 293 293 293 293 293 294 294
289 289 289 288 289 289 289 289 289 289 289 288 287 288 288 288 289 289 289 289 290 289 290 290 291 292 293 292 292 293 292 292 292 292 292 292 292 292 292 292 292 292
287 287 287 287 288 288 288 288 288 288 288 288 288 288 288 288 287 287 288 289 289 290 290 290 291 293 291 292 293 292 292 292 292 292 292 292 291 291 291 291 291 291
285 286 286 286 287 286 287 287 288 287 287 287 287 287 288 288 287 287 287 287 288 289 289 290 291 292 292 294 295 295 293 291 291 291 291 291 291 291 291 290 290 290
286 286 285 285 285 286 286 286 286 286 286 287 287 287 287 286 286 287 287 287 288 288 288 289 290 291 293 294 294 295 294 292 291 291 291 291 290 290 290 290 290 289
287 287 286 286 286 286 286 285 285 285 285 286 287 286 285 286 287 287 287 287 287 288 288 289 290 291 293 293 294 294 295 293 292 291 291 290 290 290 290 289 289 288
286 286 286 286 286 286 286 286 286 286 286 286 286 286 285 286 286 286 286 286 286 287 288 288 289 290 292 293 293 293 294 294 292 291 291 290 290 290 290 289 288 288
285 285 285 285 285 285 286 286 286 286 287 287 287 287 286 287 287 287 287 287 286 286 287 287 288 290 291 292 292 293 294 293 292 290 290 289 289 289 289 289 288 288
284 284 284 284 284 285 285 285 285 286 286 287 287 287 286 286 286 285 286 286 287 286 286 287 288 290 291 291 292 293 293 290 290 289 289 288 288 288 288 288 288 288
284 283 283 283 283 283 284 284 284 285 286 285 285 286 286 286 286 286 286 286 286 286 286 286 287 288 290 290 291 292 292 289 288 288 288 287 287 287 287 287 287 286
283 283 282 282 283 282 283 283 284 284 285 284 284 284 285 286 286 286 285 284 284 285 285 286 286 287 288 290 290 291 290 288 288 287 287 287 286 286 286 286 285 285
282 282 282 282 282 282 282 282 283 283 283 283 283 283 283 284 283 283 284 284 282 283 283 284 284 285 287 289 290 290 290 287 287 287 286 286 286 285 285 284 284 284
282 281 281 281 281 281 281 281 281 281 281 282 282 282 282 282 281 281 281 282 282 281 281 281 282 283 284 288 289 290 290 288 286 286 286 286 285 285 284 283 283 283
Wind_Speed
5 5 7 6 7 6 6 6 6 7 7 6 7 7 8 7 5 7 8 8 9 9 9 9 8 9 8 7 7 7 6 7 7 7 9 10 12 14 14 16 15 14
7 6 6 5 5 5 6 6 7 7 7 6 6 6 5 5 6 7 7 8 8 9 9 9 9 9 9 8 7 7 8 8 10 5 5 7 9 9 13 14 13 13
5 5 6 7 8 7 7 6 6 6 6 7 5 5 7 6 6 6 7 7 8 8 8 8 9 9 9 9 9 9 10 10 12 9 10 12 9 10 11 12 13 16
5 6 6 7 6 7 6 6 7 6 5 6 7 7 6 6 6 7 7 7 7 8 7 8 9 9 9 9 9 9 10 10 9 6 8 7 8 8 9 8 10 11
5 6 6 6 6 6 5 6 8 7 7 8 5 5 6 6 6 7 7 6 7 7 7 8 8 8 8 8 8 9 9 9 9 8 9 11 10 9 10 9 12 13
5 5 5 5 5 5 6 7 8 6 6 6 7 5 6 5 6 7 7 8 8 9 9 8 8 8 8 8 8 9 9 9 8 9 11 12 11 9 9 11 12 13
5 4 5 5 5 5 6 7 6 6 6 6 4 7 5 6 7 8 7 8 8 8 10 10 10 10 9 9 9 10 10 10 9 9 11 11 9 10 8 9 10 11
5 4 4 4 5 5 6 7 7 6 6 5 6 8 5 7 8 7 7 7 8 9 9 9 9 10 8 9 10 11 11 9 10 10 11 11 9 11 9 9 8 10
5 5 4 4 5 6 6 8 7 6 5 6 7 7 5 7 7 7 8 7 8 8 9 9 9 9 8 8 10 11 12 11 10 10 11 11 11 12 10 8 9 9
5 5 5 5 5 6 7 7 7 6 5 6 7 6 7 7 6 7 7 7 8 9 9 9 9 9 8 9 11 11 11 11 10 10 11 11 12 11 10 9 10 9
7 6 6 6 6 5 7 7 6 6 5 6 6 7 7 7 7 6 7 8 10 10 10 10 10 9 9 10 10 10 11 10 10 10 10 11 11 10 10 9 9 10
9 8 8 8 8 7 7 7 7 6 6 5 6 8 7 7 8 7 7 9 9 10 10 10 9 9 10 11 11 10 10 10 9 10 10 10 10 10 9 9 9 10
10 9 10 9 8 8 7 7 7 6 6 7 6 7 7 8 7 8 7 8 10 8 10 10 10 9 10 10 10 10 10 10 10 10 10 10 9 10 9 9 9 9
9 8 9 9 9 8 8 8 7 7 6 6 5 7 7 8 8 8 8 7 9 9 9 8 9 9 9 10 10 10 9 10 10 10 10 9 9 9 8 8 9 9
7 7 7 8 8 8 9 9 9 8 8 7 6 7 7 7 7 7 9 9 9 9 10 8 9 10 9 9 10 10 9 10 10 10 10 10 9 9 8 8 8 8
6 6 7 7 8 8 9 9 9 9 8 8 8 7 8 7 7 7 8 9 10 10 9 9 10 9 11 15 14 11 9 9 9 9 9 9 9 9 9 8 9 8
5 5 5 6 6 6 7 7 9 8 8 9 8 8 9 8 7 8 8 8 9 10 10 9 9 9 14 16 17 19 12 9 9 9 9 9 9 10 10 9 9 8
5 5 5 5 5 6 6 7 7 7 7 8 8 9 8 6 7 9 9 8 8 9 10 10 10 11 15 16 17 17 15 11 9 9 9 9 9 10 9 8 8 8
9 10 9 9 8 7 6 6 6 6 6 7 9 7 6 7 8 8 9 8 8 10 11 11 10 11 14 16 16 17 17 14 9 10 9 9 9 9 9 8 6 6
10 11 12 11 10 11 10 9 9 9 8 7 8 7 6 8 7 8 8 8 8 9 11 10 10 10 14 16 16 16 16 14 10 10 10 9 9 8 8 7 7 7
12 11 12 13 12 12 12 12 11 12 12 10 9 9 10 10 9 9 9 7 8 8 9 12 10 11 14 15 15 16 15 14 10 8 8 8 8 7 7 7 7 8
10 12 12 11 12 12 12 12 12 11 12 12 11 10 8 7 8 7 9 10 8 7 9 12 10 10 13 14 15 15 15 10 8 8 9 8 8 7 7 8 7 7
9 10 11 11 10 11 12 11 12 13 12 8 11 11 10 10 10 10 8 9 10 8 9 12 11 8 12 14 14 16 12 8 7 7 7 8 8 8 8 7 6 7
9 9 10 11 10 10 11 11 10 9 9 7 9 12 13 11 9 11 10 7 9 11 9 11 12 8 10 14 14 15 12 9 7 7 8 8 7 6 5 5 6 10
9 9 9 10 11 11 9 11 11 10 10 8 8 8 11 10 9 9 11 9 7 9 10 11 11 10 11 14 14 14 12 7 7 7 8 7 6 6 5 6 6 7
7 8 9 8 10 11 9 9 8 9 9 8 9 8 9 10 8 8 11 11 7 7 9 8 9 10 9 16 15 14 15 9 5 6 8 7 6 6 6 5 5 5
Wind_Direction
242 233 239 237 238 233 238 235 230 233 232 226 227 229 220 225 210 213 222 226 229 235 238 242 246 249 251 251 250 247 241 236 231 219 217 213 219 218 223 225 223 225
242 239 244 248 257 246 242 230 238 230 241 231 233 233 229 213 219 208 217 223 227 231 233 237 239 243 246 246 242 244 247 244 249 221 232 228 237 235 239 238 235 234
253 249 243 242 244 247 244 243 241 241 238 237 235 225 227 214 220 215 218 219 224 228 229 231 234 234 237 239 240 241 244 246 249 245 241 245 239 234 237 232 232 228
255 244 245 248 246 250 247 246 245 243 243 245 232 230 223 225 217 221 221 219 224 227 226 225 228 230 230 231 231 235 237 239 238 229 236 241 235 239 247 245 245 242
255 257 252 252 252 250 249 245 250 243 241 245 257 237 232 228 224 227 225 226 223 231 228 228 227 228 225 229 226 237 237 242 239 236 242 245 241 233 243 240 245 243
273 263 267 263 258 255 253 249 252 251 249 253 243 237 237 232 230 230 224 221 220 221 224 226 226 225 218 224 225 234 237 239 236 230 238 241 242 230 233 231 234 238
282 284 276 271 274 264 263 264 265 256 255 251 261 245 232 233 233 235 233 230 231 229 229 227 221 221 212 214 219 230 233 234 236 228 236 242 238 239 228 231 236 238
293 288 283 285 280 278 270 272 270 264 257 261 247 253 225 238 237 239 236 234 234 235 234 236 235 231 220 215 220 225 232 226 233 230 234 242 235 242 233 227 225 235
312 306 299 292 287 282 277 273 273 270 260 255 255 258 241 239 245 241 239 238 240 241 239 239 235 237 231 223 228 230 233 230 225 226 231 237 237 240 239 231 232 234
321 314 318 308 296 286 283 281 280 278 267 259 261 264 260 251 242 248 245 240 243 244 240 241 239 234 232 226 231 232 236 236 230 228 231 235 237 241 237 230 233 237
342 340 331 315 299 291 285 287 284 283 275 264 269 265 257 259 256 239 247 242 241 242 242 239 237 235 232 233 234 236 238 238 234 232 233 235 237 239 239 234 237 237
342 340 338 328 319 313 305 300 295 287 281 269 254 266 263 254 255 250 237 247 243 245 243 245 241 234 233 235 235 236 238 238 238 238 237 236 236 235 235 233 238 244
339 336 331 326 322 316 311 307 301 291 283 278 265 260 267 266 257 256 249 245 252 246 247 245 245 236 236 236 238 236 234 234 234 235 238 239 238 236 234 233 236 240
334 327 328 323 319 319 316 312 309 305 295 284 280 274 268 265 263 260 260 245 251 248 251 247 247 245 239 239 238 236 233 234 231 232 234 238 240 239 235 234 234 236
323 324 320 319 320 320 320 319 316 310 306 300 289 279 271 266 267 265 269 264 257 252 255 246 245 244 238 236 240 239 232 235 230 229 230 235 238 238 235 235 238 238
314 314 315 315 317 319 317 315 312 309 306 302 295 286 281 275 272 265 260 265 268 264 257 252 248 247 241 237 234 236 234 234 232 231 228 231 235 239 237 230 233 232
305 301 299 303 297 298 300 303 304 305 305 301 296 291 286 285 278 274 265 259 260 263 264 257 253 250 245 242 242 238 235 234 231 234 228 230 231 233 237 232 230 227
321 312 309 301 299 296 295 291 289 291 291 289 290 291 287 284 280 270 272 269 266 264 261 259 257 251 247 247 245 245 238 235 233 232 229 228 228 230 234 231 230 226
340 340 336 334 332 325 313 308 300 297 294 296 292 285 287 280 270 274 269 268 264 267 266 260 258 253 250 250 248 245 241 236 238 234 233 234 228 229 229 228 225 227
342 341 338 334 332 331 331 330 330 325 315 298 294 299 289 286 282 273 273 267 262 262 268 269 262 259 250 250 249 245 243 238 240 237 236 236 234 228 228 224 220 220
341 340 336 334 333 334 334 333 333 328 329 327 321 317 313 305 302 298 285 274 270 264 269 272 267 263 257 253 251 248 244 240 239 239 238 237 234 229 224 222 216 218
338 333 331 331 330 330 330 328 328 327 324 324 320 314 304 293 290 279 284 288 280 275 277 276 275 266 262 260 256 254 247 242 239 237 238 235 231 224 223 220 217 208
332 327 324 323 323 323 321 321 324 322 321 321 313 311 308 307 300 294 291 288 288 281 275 279 281 274 266 264 260 257 253 247 239 239 238 236 232 225 226 220 211 203
325 321 316 316 316 315 313 310 310 302 301 313 307 309 307 305 304 301 294 283 283 283 272 279 284 277 268 268 261 256 246 245 239 238 240 236 240 231 224 221 212 208
316 313 310 308 308 305 306 305 307 305 303 306 296 291 289 294 299 294 294 289 274 276 282 276 280 281 272 270 262 257 250 242 238 236 244 242 235 235 219 215 212 207
301 302 297 295 297 298 297 292 295 300 300 301 298 292 292 297 295 290 290 291 290 283 282 273 277 278 269 271 266 259 251 245 245 245 248 248 232 230 225 223 211 203